DW3753 Weather Reports


Display with metric or nautical units.
time (UTC)temp
F
wind
direction
speed
MPH
gust
MPH
rain 1hr
in
rain 24hr
in
rain mn
in
humidity
%
barometer
mb
20200404090031 39 0 9.0 14.0 0.00 0.05 0.00 90 1016.8
20200404085531 39 0 10.0 16.0 0.00 0.05 0.00 89 1017.0
20200404085032 39 0 10.0 16.0 0.00 0.05 0.00 89 1017.0
20200404084532 40 0 9.0 14.0 0.00 0.05 0.00 89 1017.2
20200404084032 40 0 9.0 14.0 0.00 0.05 0.00 89 1017.2
20200404083534 39 0 9.0 14.0 0.00 0.05 0.00 89 1017.1
20200404083034 39 0 6.0 13.0 0.00 0.05 0.00 89 1016.8
20200404082525 39 0 6.0 12.0 0.00 0.05 0.00 89 1017.0
20200404082027 39 0 6.0 12.0 0.00 0.05 0.00 89 1017.1
20200404081525 39 0 6.0 11.0 0.00 0.05 0.00 89 1017.1
20200404081023 39 0 6.0 11.0 0.00 0.05 0.00 89 1017.2
20200404080524 39 0 7.0 12.0 0.00 0.05 0.00 89 1017.1
20200404080023 39 0 6.0 12.0 0.00 0.05 0.00 89 1017.0
20200404075523 39 0 4.0 11.0 0.00 0.05 0.00 89 1017.0
20200404075024 40 0 4.0 8.0 0.00 0.05 0.00 89 1017.2
20200404074525 40 0 5.0 10.0 0.00 0.05 0.00 89 1017.2
20200404074024 40 0 6.0 11.0 0.00 0.05 0.00 89 1017.2
20200404073519 40 0 5.0 11.0 0.00 0.05 0.00 89 1017.4
20200404073019 40 0 6.0 10.0 0.00 0.05 0.00 88 1017.4
20200404072519 40 0 7.0 11.0 0.00 0.05 0.00 88 1017.5
20200404072018 40 0 7.0 11.0 0.00 0.05 0.00 88 1017.8
20200404071518 40 0 6.0 11.0 0.00 0.05 0.00 88 1018.0
20200404071020 40 0 7.0 11.0 0.00 0.05 0.00 88 1018.1
20200404070522 40 0 7.0 11.0 0.00 0.05 0.00 88 1018.1
20200404070015 40 0 6.0 10.0 0.00 0.05 0.00 88 1018.3
20200404065514 40 0 6.0 10.0 0.00 0.05 0.00 88 1018.3
20200404065014 40 0 6.0 11.0 0.00 0.05 0.00 88 1018.3
20200404064511 40 0 4.0 11.0 0.00 0.05 0.00 88 1018.3
20200404064010 40 0 5.0 9.0 0.00 0.05 0.00 88 1018.2
20200404063512 40 0 6.0 10.0 0.00 0.05 0.00 88 1018.0
20200404063012 40 0 6.0 10.0 0.00 0.05 0.00 88 1018.0
20200404062512 40 0 6.0 10.0 0.00 0.05 0.00 88 1018.0
20200404062012 40 0 7.0 11.0 0.00 0.05 0.00 88 1017.9
20200404061510 40 0 6.0 11.0 0.00 0.05 0.00 88 1017.9
20200404061009 40 0 5.0 10.0 0.00 0.05 0.00 89 1017.5
20200404060507 40 0 4.0 10.0 0.00 0.05 0.00 88 1017.4
20200404060008 40 0 4.0 8.0 0.00 0.05 0.00 89 1017.3
20200404055508 40 0 4.0 9.0 0.00 0.05 0.00 89 1017.6
20200404055007 39 0 7.0 12.0 0.00 0.05 0.00 88 1017.6
20200404054507 39 0 7.0 12.0 0.00 0.05 0.00 88 1017.6
20200404054002 40 0 5.0 11.0 0.00 0.05 0.00 89 1017.6
20200404053502 40 0 6.0 12.0 0.00 0.05 0.00 89 1017.6
20200404053004 39 0 6.0 12.0 0.00 0.05 0.00 89 1017.8
20200404052504 39 0 5.0 12.0 0.00 0.05 0.00 89 1017.7
20200404052002 40 0 7.0 12.0 0.00 0.05 0.00 89 1017.8
20200404051502 40 0 6.0 12.0 0.00 0.05 0.00 89 1018.0
20200404050959 40 0 6.0 12.0 0.01 0.05 0.00 89 1018.0
20200404050500 40 0 5.0 11.0 0.01 0.05 0.00 89 1018.2
20200404045958 40 0 6.0 10.0 0.01 0.05 0.05 89 1018.4
20200404045458 40 0 7.0 12.0 0.01 0.05 0.05 89 1018.3
20200404044956 40 0 7.0 12.0 0.01 0.05 0.05 89 1018.3
20200404044458 40 0 7.0 12.0 0.01 0.05 0.05 89 1018.2
20200404043958 40 0 6.0 12.0 0.01 0.05 0.05 89 1018.0
20200404043454 40 0 5.0 12.0 0.01 0.05 0.05 89 1018.0
20200404042953 40 0 7.0 12.0 0.01 0.05 0.05 89 1018.0
20200404042455 40 0 9.0 14.0 0.01 0.05 0.05 89 1018.1
20200404041954 40 0 9.0 14.0 0.01 0.05 0.05 89 1018.0
20200404041454 40 0 8.0 13.0 0.01 0.05 0.05 89 1018.0
20200404040955 40 0 8.0 11.0 0.00 0.04 0.04 89 1018.2
20200404040456 40 0 7.0 11.0 0.00 0.04 0.04 89 1018.4
20200404035948 40 0 6.0 11.0 0.00 0.04 0.04 89 1018.3
20200404035450 40 0 5.0 10.0 0.00 0.04 0.04 89 1018.3
20200404034948 40 0 5.0 12.0 0.00 0.04 0.04 89 1018.3
20200404034448 39 0 6.0 12.0 0.00 0.04 0.04 89 1018.2
20200404033948 40 0 6.0 11.0 0.00 0.04 0.04 89 1018.2
20200404033448 40 0 6.0 12.0 0.00 0.04 0.04 89 1017.9
20200404032946 40 0 6.0 12.0 0.00 0.04 0.04 89 1018.0
20200404032446 40 0 7.0 12.0 0.00 0.04 0.04 89 1017.9
20200404031946 39 0 7.0 12.0 0.00 0.04 0.04 89 1018.0
20200404031445 39 0 6.0 12.0 0.00 0.04 0.04 88 1018.1
20200404030949 39 0 6.0 13.0 0.00 0.04 0.04 88 1018.1
20200404030444 39 0 6.0 13.0 0.00 0.04 0.04 88 1018.0
20200404025946 39 0 6.0 12.0 0.00 0.04 0.04 88 1017.8
20200404025439 39 0 6.0 15.0 0.00 0.04 0.04 88 1017.9
20200404024940 39 0 6.0 15.0 0.00 0.04 0.04 88 1017.7
20200404024439 39 0 6.0 16.0 0.00 0.04 0.04 88 1017.6
20200404023939 39 0 8.0 16.0 0.00 0.04 0.04 87 1017.7
20200404023440 40 0 7.0 13.0 0.00 0.04 0.04 87 1017.6
20200404022940 40 0 7.0 13.0 0.00 0.04 0.04 88 1017.7
20200404022440 40 0 7.0 13.0 0.00 0.04 0.04 88 1017.5
20200404021934 40 0 7.0 12.0 0.00 0.04 0.04 88 1017.4
20200404021435 39 0 7.0 12.0 0.00 0.04 0.04 88 1017.3
20200404020937 39 0 7.0 12.0 0.00 0.04 0.04 88 1017.2
20200404020434 40 0 8.0 12.0 0.00 0.04 0.04 88 1016.9
20200404015934 40 0 7.0 14.0 0.00 0.04 0.04 88 1016.8
20200404015434 40 0 6.0 14.0 0.00 0.04 0.04 88 1017.1
20200404014931 40 0 7.0 13.0 0.00 0.04 0.04 88 1016.9
20200404014431 40 0 6.0 13.0 0.00 0.04 0.04 88 1016.9
20200404013931 40 0 5.0 10.0 0.00 0.04 0.04 89 1016.9
20200404013430 40 0 5.0 11.0 0.00 0.04 0.04 89 1016.9
20200404012931 40 0 6.0 12.0 0.00 0.04 0.04 89 1016.8
20200404012433 40 0 9.0 15.0 0.00 0.04 0.04 89 1016.9
20200404011935 39 0 10.0 15.0 0.00 0.04 0.04 88 1016.8
20200404011427 39 0 9.0 14.0 0.00 0.04 0.04 89 1016.8
20200404010928 39 0 10.0 17.0 0.00 0.04 0.04 88 1016.7
20200404010426 40 0 10.0 17.0 0.00 0.04 0.04 88 1016.6
20200404005926 40 0 9.0 16.0 0.00 0.04 0.04 88 1016.4
20200404005426 40 0 10.0 17.0 0.00 0.04 0.04 89 1016.6
20200404004927 40 0 10.0 20.0 0.00 0.04 0.04 89 1016.3
20200404004418 40 0 9.0 20.0 0.00 0.04 0.04 89 1016.4
20200404003919 40 0 9.0 14.0 0.00 0.04 0.04 89 1016.6
20200404003419 40 0 9.0 14.0 0.00 0.04 0.04 89 1016.7
20200404002919 40 0 8.0 13.0 0.00 0.04 0.04 88 1016.8
20200404002419 40 0 9.0 15.0 0.00 0.04 0.04 88 1016.8
20200404001920 40 0 10.0 16.0 0.00 0.04 0.04 88 1016.7
20200404001420 40 0 11.0 18.0 0.00 0.04 0.04 88 1016.9
20200404000914 40 0 12.0 18.0 0.00 0.04 0.04 88 1016.8
20200404000414 40 0 10.0 16.0 0.00 0.04 0.04 88 1016.8
20200403235914 40 0 9.0 16.0 0.00 0.04 0.04 88 1016.8
20200403235410 40 0 9.0 16.0 0.00 0.04 0.04 88 1016.6
20200403234912 40 0 10.0 17.0 0.00 0.04 0.04 88 1016.6
20200403234412 40 0 11.0 19.0 0.00 0.04 0.04 88 1016.6
20200403233909 40 0 9.0 19.0 0.00 0.04 0.04 88 1016.7
20200403233407 40 0 9.0 15.0 0.00 0.04 0.04 88 1016.6
20200403232909 40 0 10.0 17.0 0.00 0.04 0.04 88 1016.7
20200403232407 40 0 10.0 17.0 0.00 0.04 0.04 88 1016.7
20200403231907 40 0 11.0 18.0 0.00 0.04 0.04 88 1016.6
20200403231408 40 0 12.0 18.0 0.00 0.04 0.04 88 1016.6
20200403230907 40 0 11.0 18.0 0.00 0.04 0.04 89 1016.6
20200403230401 40 0 10.0 16.0 0.00 0.04 0.04 89 1016.6
20200403225900 40 0 9.0 16.0 0.00 0.04 0.04 89 1016.5
20200403225402 40 0 11.0 18.0 0.00 0.04 0.04 89 1016.4
20200403224859 40 0 12.0 19.0 0.00 0.04 0.04 89 1016.3
20200403224359 40 0 13.0 19.0 0.00 0.04 0.04 89 1016.2
20200403223859 41 0 12.0 18.0 0.00 0.04 0.04 89 1016.2
20200403223400 41 0 11.0 17.0 0.00 0.04 0.04 89 1016.1
20200403222857 41 0 10.0 17.0 0.00 0.04 0.04 89 1016.3
20200403222358 41 0 11.0 17.0 0.00 0.04 0.04 89 1016.2
20200403221858 41 0 12.0 18.0 0.00 0.04 0.04 89 1016.4
20200403221358 41 0 13.0 18.0 0.00 0.04 0.04 89 1016.4
20200403220859 41 0 13.0 19.0 0.00 0.04 0.04 89 1016.4
20200403220357 41 0 12.0 19.0 0.00 0.04 0.04 89 1016.3
20200403215900 41 0 11.0 18.0 0.00 0.04 0.04 90 1016.2
20200403215354 41 0 12.0 17.0 0.00 0.04 0.04 90 1016.4
20200403214854 41 0 13.0 19.0 0.00 0.04 0.04 89 1016.4
20200403214353 41 0 12.0 19.0 0.00 0.04 0.04 90 1016.5
20200403213853 41 0 13.0 20.0 0.00 0.04 0.04 90 1016.2
20200403213352 41 0 13.0 21.0 0.00 0.04 0.04 89 1016.2
20200403212855 41 0 10.0 21.0 0.00 0.04 0.04 90 1016.2
20200403212354 41 0 9.0 16.0 0.00 0.04 0.04 90 1016.5
20200403211848 41 0 11.0 18.0 0.00 0.04 0.04 90 1016.7
20200403211348 41 0 11.0 18.0 0.00 0.04 0.04 89 1016.7
20200403210849 41 0 12.0 18.0 0.00 0.04 0.04 90 1016.5
20200403210347 41 0 12.0 18.0 0.00 0.04 0.04 90 1016.4
20200403205847 41 0 12.0 18.0 0.00 0.04 0.04 90 1016.5
20200403205347 41 0 12.0 18.0 0.00 0.04 0.04 90 1016.4
20200403204848 41 0 14.0 21.0 0.00 0.04 0.04 90 1016.4
20200403204342 41 0 14.0 21.0 0.00 0.04 0.04 89 1016.4
20200403203842 41 0 14.0 22.0 0.00 0.04 0.04 90 1016.5
20200403203342 41 0 14.0 22.0 0.00 0.04 0.04 90 1016.5
20200403202842 41 0 14.0 21.0 0.00 0.04 0.04 90 1016.5
20200403202341 41 0 13.0 21.0 0.00 0.04 0.04 90 1016.6
20200403201844 41 0 12.0 19.0 0.00 0.04 0.04 91 1016.5
20200403201335 41 0 13.0 19.0 0.00 0.04 0.04 91 1016.6
20200403200835 41 0 13.0 21.0 0.00 0.04 0.04 91 1016.6
20200403200336 41 0 15.0 24.0 0.00 0.04 0.04 91 1016.4
20200403195835 41 0 16.0 24.0 0.00 0.04 0.04 91 1016.4
20200403195335 41 0 15.0 23.0 0.00 0.04 0.04 91 1016.5
20200403194834 41 0 14.0 22.0 0.00 0.04 0.04 91 1016.6
20200403194336 41 0 13.0 20.0 0.00 0.04 0.04 92 1016.8
20200403193830 41 0 14.0 21.0 0.00 0.04 0.04 92 1016.9
20200403193330 41 0 14.0 21.0 0.00 0.04 0.04 92 1017.0
20200403192830 41 0 13.0 20.0 0.00 0.04 0.04 92 1017.1
20200403192330 41 0 13.0 20.0 0.00 0.04 0.04 92 1017.0
20200403191830 41 0 12.0 18.0 0.00 0.04 0.04 92 1017.1
20200403191333 41 0 13.0 20.0 0.00 0.04 0.04 92 1017.1
20200403190824 41 0 13.0 20.0 0.00 0.04 0.04 92 1017.2
20200403190323 41 0 13.0 20.0 0.00 0.04 0.04 92 1017.2
20200403185824 41 0 14.0 21.0 0.00 0.04 0.04 92 1017.1
20200403185324 41 0 15.0 21.0 0.00 0.04 0.04 92 1017.1
20200403184824 41 0 13.0 22.0 0.00 0.04 0.04 92 1017.1
20200403184323 41 0 13.0 22.0 0.00 0.04 0.04 93 1017.1
20200403183819 41 0 14.0 20.0 0.00 0.04 0.04 92 1017.1
20200403183320 41 0 13.0 19.0 0.00 0.04 0.04 92 1017.1
20200403182821 41 0 14.0 21.0 0.00 0.04 0.04 93 1017.1
20200403182318 41 0 13.0 21.0 0.00 0.04 0.04 93 1017.0
20200403181818 41 0 13.0 21.0 0.00 0.04 0.04 93 1017.3
20200403181318 41 0 13.0 20.0 0.00 0.04 0.04 93 1017.3
20200403180814 41 0 14.0 22.0 0.00 0.04 0.04 93 1017.4
20200403180314 41 0 14.0 22.0 0.00 0.04 0.04 93 1017.2
20200403175812 41 0 12.0 20.0 0.00 0.04 0.04 93 1017.4
20200403175312 42 0 11.0 20.0 0.00 0.04 0.04 93 1017.4
20200403174812 42 0 11.0 18.0 0.00 0.04 0.04 93 1017.3
20200403174314 41 0 11.0 18.0 0.00 0.04 0.04 93 1017.4
20200403173806 41 0 11.0 19.0 0.00 0.04 0.04 93 1017.6
20200403173306 41 0 13.0 20.0 0.00 0.04 0.04 93 1017.5
20200403172806 41 0 14.0 20.0 0.00 0.04 0.04 93 1017.3
20200403172306 41 0 14.0 22.0 0.00 0.04 0.04 93 1017.2
20200403171806 41 0 14.0 22.0 0.00 0.04 0.04 93 1017.2
20200403171306 41 0 14.0 20.0 0.00 0.04 0.04 93 1017.2
20200403170800 41 0 14.0 21.0 0.00 0.04 0.04 92 1017.2
20200403170300 41 0 14.0 23.0 0.00 0.04 0.04 93 1017.3
20200403165801 41 0 16.0 24.0 0.00 0.04 0.04 93 1017.3
20200403165300 41 0 16.0 24.0 0.00 0.04 0.04 93 1017.3
20200403164800 42 0 15.0 21.0 0.00 0.04 0.04 93 1017.1
20200403164300 42 0 14.0 20.0 0.01 0.04 0.04 93 1017.2
20200403163754 42 0 14.0 21.0 0.01 0.04 0.04 93 1017.1
20200403163253 41 0 14.0 21.0 0.01 0.04 0.04 93 1017.3
20200403162754 41 0 14.0 21.0 0.01 0.04 0.04 93 1017.3
20200403162254 42 0 15.0 25.0 0.01 0.04 0.04 93 1017.0
20200403161754 42 0 14.0 25.0 0.01 0.04 0.04 93 1017.0
20200403161256 42 0 14.0 21.0 0.01 0.04 0.04 93 1017.1
20200403160748 42 0 14.0 21.0 0.01 0.04 0.04 93 1017.2
20200403160249 42 0 15.0 25.0 0.01 0.04 0.04 93 1017.2
20200403155749 42 0 17.0 29.0 0.01 0.04 0.04 93 1016.9
20200403155250 42 0 18.0 29.0 0.01 0.04 0.04 93 1016.8
20200403154748 42 0 18.0 26.0 0.01 0.04 0.04 93 1016.5
20200403154248 42 0 16.0 25.0 0.00 0.03 0.03 93 1016.5
20200403153742 43 0 16.0 24.0 0.00 0.03 0.03 93 1016.3
20200403153242 42 0 16.0 24.0 0.00 0.03 0.03 93 1016.4
20200403152745 43 0 14.0 23.0 0.01 0.03 0.03 93 1016.2
20200403152241 44 0 14.0 22.0 0.01 0.03 0.03 93 1016.3
20200403151742 44 0 15.0 24.0 0.01 0.03 0.03 92 1016.0
20200403151242 45 0 15.0 24.0 0.01 0.03 0.03 93 1015.9
20200403150736 45 0 16.0 24.0 0.01 0.03 0.03 93 1015.8
20200403150237 45 0 17.0 24.0 0.01 0.03 0.03 93 1015.5
20200403145737 45 0 16.0 24.0 0.01 0.03 0.03 92 1015.3
20200403145238 46 0 14.0 24.0 0.01 0.03 0.03 93 1015.3
20200403144736 46 0 14.0 20.0 0.02 0.03 0.03 93 1015.1
20200403144238 47 0 14.0 20.0 0.02 0.03 0.03 93 1014.9
20200403143731 47 0 16.0 25.0 0.02 0.03 0.03 93 1014.9
20200403143230 47 0 18.0 25.0 0.02 0.03 0.03 93 1014.7
20200403142730 47 0 16.0 26.0 0.01 0.02 0.02 92 1014.7
20200403142230 47 0 16.0 26.0 0.01 0.02 0.02 92 1014.5
20200403141730 48 0 16.0 23.0 0.01 0.02 0.02 92 1014.4
20200403141230 48 0 16.0 23.0 0.01 0.02 0.02 92 1014.2
20200403140724 49 0 16.0 23.0 0.01 0.02 0.02 92 1014.1
20200403140224 49 0 17.0 25.0 0.01 0.02 0.02 91 1013.9
20200403135726 51 0 18.0 28.0 0.01 0.02 0.02 91 1013.7
20200403135224 52 0 13.0 28.0 0.01 0.02 0.02 88 1013.5
20200403134724 61 0 5.0 23.0 0.00 0.01 0.01 89 1013.3
20200403134224 65 0 3.0 8.0 0.00 0.01 0.01 93 1012.5
20200403133722 65 0 3.0 8.0 0.00 0.01 0.01 93 1012.4
20200403133220 65 0 3.0 9.0 0.00 0.01 0.01 93 1012.4
20200403132718 65 0 3.0 9.0 0.00 0.01 0.01 93 1012.4
20200403132218 65 0 2.0 6.0 0.00 0.01 0.01 93 1012.2
20200403131718 65 0 3.0 6.0 0.00 0.01 0.01 93 1012.2
20200403131220 65 0 3.0 6.0 0.00 0.01 0.01 93 1012.1
20200403130715 64 0 3.0 6.0 0.00 0.01 0.01 93 1012.2
20200403130215 64 0 3.0 6.0 0.00 0.01 0.01 93 1012.2
20200403125714 64 0 2.0 6.0 0.00 0.01 0.01 93 1012.2
20200403125214 64 0 2.0 6.0 0.00 0.01 0.01 93 1012.2
20200403124711 64 0 2.0 5.0 0.00 0.01 0.01 93 1012.3
20200403124212 64 0 2.0 5.0 0.00 0.01 0.01 93 1012.2
20200403123706 64 0 1.0 3.0 0.00 0.01 0.01 93 1012.2
20200403123204 64 0 1.0 3.0 0.00 0.01 0.01 93 1012.1
20200403122702 64 0 1.0 3.0 0.00 0.01 0.01 93 1012.1
20200403122201 64 0 1.0 3.0 0.01 0.01 0.01 93 1012.0
20200403121701 64 0 1.0 3.0 0.01 0.01 0.01 93 1012.0
20200403121201 64 0 1.0 3.0 0.01 0.01 0.01 93 1012.0
20200403120657 64 0 1.0 3.0 0.01 0.01 0.01 93 1011.9
20200403120158 64 0 1.0 4.0 0.01 0.01 0.01 92 1011.9
20200403115656 64 0 2.0 4.0 0.01 0.01 0.01 92 1011.9
20200403115200 64 0 2.0 4.0 0.01 0.01 0.01 92 1011.8
20200403114657 64 0 1.0 3.0 0.01 0.01 0.01 92 1011.8
20200403114157 64 0 1.0 4.0 0.01 0.01 0.01 92 1011.7
20200403113657 64 0 2.0 4.0 0.01 0.01 0.01 92 1011.7
20200403113152 64 0 2.0 4.0 0.01 0.01 0.01 92 1011.7
20200403112651 64 0 1.0 3.0 0.01 0.01 0.01 92 1011.7
20200403112148 64 0 0.0 2.0 0.00 0.00 0.00 92 1011.6
20200403111646 65 0 0.0 3.0 0.00 0.00 0.00 92 1011.6
20200403111146 65 0 1.0 3.0 0.00 0.00 0.00 92 1011.5
20200403110644 65 0 0.0 2.0 0.00 0.00 0.00 92 1011.6
20200403110142 65 0 0.0 2.0 0.00 0.00 0.00 92 1011.6
20200403105642 65 0 0.0 2.0 0.00 0.00 0.00 92 1011.4
20200403105142 65 0 0.0 3.0 0.00 0.00 0.00 92 1011.2
20200403104640 65 0 0.0 3.0 0.00 0.00 0.00 92 1010.9
20200403104142 65 0 2.0 6.0 0.00 0.00 0.00 92 1010.8
20200403103637 65 0 4.0 6.0 0.00 0.00 0.00 92 1010.9
20200403103137 65 0 3.0 6.0 0.00 0.00 0.00 92 1011.1
20200403102637 65 0 3.0 11.0 0.00 0.00 0.00 92 1010.8
20200403102136 65 0 4.0 11.0 0.00 0.00 0.00 92 1010.3
20200403101634 65 0 5.0 10.0 0.00 0.00 0.00 91 1009.8
20200403101134 65 0 5.0 11.0 0.00 0.00 0.00 91 1009.5
20200403100629 65 0 6.0 11.0 0.00 0.00 0.00 91 1009.4
20200403100130 65 0 6.0 11.0 0.00 0.00 0.00 91 1009.4
20200403095630 65 0 5.0 11.0 0.00 0.00 0.00 91 1009.4
20200403095128 65 0 7.0 15.0 0.00 0.00 0.00 91 1009.2
20200403094628 65 0 7.0 16.0 0.00 0.00 0.00 90 1009.2
20200403094127 65 0 7.0 16.0 0.00 0.00 0.00 90 1009.2
20200403093625 65 0 8.0 15.0 0.00 0.00 0.00 90 1009.2
20200403093125 65 0 7.0 12.0 0.00 0.00 0.00 90 1009.2
20200403092625 65 0 7.0 15.0 0.00 0.00 0.00 90 1009.1
20200403092125 65 0 7.0 15.0 0.00 0.00 0.00 90 1009.1
20200403091625 65 0 8.0 15.0 0.00 0.00 0.00 90 1009.2
20200403091126 65 0 8.0 15.0 0.00 0.00 0.00 89 1009.1
20200403090629 65 0 7.0 15.0 0.00 0.00 0.00 89 1009.3